owner,sensor,date,latitude,longitude,vertical_datum,sea_water_practical_salinity,qcFlag 
ENP,ioos.station.NOAA.NDBC:HCEF1:1,2019-04-01T01:00:00Z,25.2540,-80.4440,1.5,36.57,1111122 
ENP,ioos.station.NOAA.NDBC:HCEF1:1,2019-04-01T03:00:00Z,25.2540,-80.4440,1.5,36.56,1111122 
ENP,ioos.station.NOAA.NDBC:HCEF1:1,2019-04-01T04:00:00Z,25.2540,-80.4440,1.5,36.56,1111122 
ENP,ioos.station.NOAA.NDBC:HCEF1:1,2019-04-01T05:00:00Z,25.2540,-80.4440,1.5,36.58,1111122 
ENP,ioos.station.NOAA.NDBC:HCEF1:1,2019-04-01T06:00:00Z,25.2540,-80.4440,1.5,36.57,1111122 
ENP,ioos.station.NOAA.NDBC:HCEF1:1,2019-04-01T07:00:00Z,25.2540,-80.4440,1.5,36.59,1111122 
ENP,ioos.station.NOAA.NDBC:HCEF1:1,2019-04-01T08:00:00Z,25.2540,-80.4440,1.5,36.55,1111122 
ENP,ioos.station.NOAA.NDBC:HCEF1:1,2019-04-01T09:00:00Z,25.2540,-80.4440,1.5,36.57,1111122 
ENP,ioos.station.NOAA.NDBC:HCEF1:1,2019-04-01T10:00:00Z,25.2540,-80.4440,1.5,36.53,1111122 
ENP,ioos.station.NOAA.NDBC:HCEF1:1,2019-04-01T11:00:00Z,25.2540,-80.4440,1.5,36.49,1111122 
ENP,ioos.station.NOAA.NDBC:HCEF1:1,2019-04-01T12:00:00Z,25.2540,-80.4440,1.5,36.48,1111122 
ENP,ioos.station.NOAA.NDBC:HCEF1:1,2019-04-01T13:00:00Z,25.2540,-80.4440,1.5,36.44,1111122 
ENP,ioos.station.NOAA.NDBC:HCEF1:1,2019-04-01T14:00:00Z,25.2540,-80.4440,1.5,36.42,1111122 
ENP,ioos.station.NOAA.NDBC:HCEF1:1,2019-04-01T15:00:00Z,25.2540,-80.4440,1.5,36.43,1111122 
ENP,ioos.station.NOAA.NDBC:HCEF1:1,2019-04-01T16:00:00Z,25.2540,-80.4440,1.5,36.46,1111122 
ENP,ioos.station.NOAA.NDBC:HCEF1:1,2019-04-01T17:00:00Z,25.2540,-80.4440,1.5,36.48,1111122 
ENP,ioos.station.NOAA.NDBC:HCEF1:1,2019-04-01T18:00:00Z,25.2540,-80.4440,1.5,36.51,1111122 
ENP,ioos.station.NOAA.NDBC:HCEF1:1,2019-04-01T19:00:00Z,25.2540,-80.4440,1.5,36.55,1111122 
ENP,ioos.station.NOAA.NDBC:HCEF1:1,2019-04-01T20:00:00Z,25.2540,-80.4440,1.5,36.57,1111122 
ENP,ioos.station.NOAA.NDBC:HCEF1:1,2019-04-01T23:00:00Z,25.2540,-80.4440,1.5,36.64,1111122 
ENP,ioos.station.NOAA.NDBC:HCEF1:1,2019-04-02T00:00:00Z,25.2540,-80.4440,1.5,36.66,1111122 
ENP,ioos.station.NOAA.NDBC:HCEF1:1,2019-04-02T03:00:00Z,25.2540,-80.4440,1.5,36.61,1111122 
ENP,ioos.station.NOAA.NDBC:HCEF1:1,2019-04-02T04:00:00Z,25.2540,-80.4440,1.5,36.61,1111122 
ENP,ioos.station.NOAA.NDBC:HCEF1:1,2019-04-02T05:00:00Z,25.2540,-80.4440,1.5,36.6,1111122 
ENP,ioos.station.NOAA.NDBC:HCEF1:1,2019-04-02T06:00:00Z,25.2540,-80.4440,1.5,36.61,1111122 
ENP,ioos.station.NOAA.NDBC:HCEF1:1,2019-04-02T07:00:00Z,25.2540,-80.4440,1.5,36.61,1111122 
ENP,ioos.station.NOAA.NDBC:HCEF1:1,2019-04-02T08:00:00Z,25.2540,-80.4440,1.5,36.59,1111122 
ENP,ioos.station.NOAA.NDBC:HCEF1:1,2019-04-02T09:00:00Z,25.2540,-80.4440,1.5,36.56,1111122 
ENP,ioos.station.NOAA.NDBC:HCEF1:1,2019-04-02T10:00:00Z,25.2540,-80.4440,1.5,36.54,1111122 
ENP,ioos.station.NOAA.NDBC:HCEF1:1,2019-04-02T11:00:00Z,25.2540,-80.4440,1.5,36.56,1111122 
ENP,ioos.station.NOAA.NDBC:HCEF1:1,2019-04-02T12:00:00Z,25.2540,-80.4440,1.5,36.54,1111122 
ENP,ioos.station.NOAA.NDBC:HCEF1:1,2019-04-02T13:00:00Z,25.2540,-80.4440,1.5,36.5,1111122 
ENP,ioos.station.NOAA.NDBC:HCEF1:1,2019-04-02T14:00:00Z,25.2540,-80.4440,1.5,36.5,1111122 
ENP,ioos.station.NOAA.NDBC:HCEF1:1,2019-04-02T15:00:00Z,25.2540,-80.4440,1.5,36.54,1111122 
ENP,ioos.station.NOAA.NDBC:HCEF1:1,2019-04-02T17:00:00Z,25.2540,-80.4440,1.5,36.54,1111122 
ENP,ioos.station.NOAA.NDBC:HCEF1:1,2019-04-02T18:00:00Z,25.2540,-80.4440,1.5,36.58,1111122 
ENP,ioos.station.NOAA.NDBC:HCEF1:1,2019-04-02T19:00:00Z,25.2540,-80.4440,1.5,36.61,1111122 
ENP,ioos.station.NOAA.NDBC:HCEF1:1,2019-04-02T20:00:00Z,25.2540,-80.4440,1.5,36.64,1111122 
ENP,ioos.station.NOAA.NDBC:HCEF1:1,2019-04-02T23:00:00Z,25.2540,-80.4440,1.5,36.71,1111122 
ENP,ioos.station.NOAA.NDBC:HCEF1:1,2019-04-03T01:00:00Z,25.2540,-80.4440,1.5,36.74,1111122 
ENP,ioos.station.NOAA.NDBC:HCEF1:1,2019-04-03T03:00:00Z,25.2540,-80.4440,1.5,36.77,1111122 
ENP,ioos.station.NOAA.NDBC:HCEF1:1,2019-04-03T04:00:00Z,25.2540,-80.4440,1.5,36.74,1111122 
ENP,ioos.station.NOAA.NDBC:HCEF1:1,2019-04-03T05:00:00Z,25.2540,-80.4440,1.5,36.69,1111122 
ENP,ioos.station.NOAA.NDBC:HCEF1:1,2019-04-03T06:00:00Z,25.2540,-80.4440,1.5,36.66,1111122 
ENP,ioos.station.NOAA.NDBC:HCEF1:1,2019-04-03T07:00:00Z,25.2540,-80.4440,1.5,36.64,1111122 
ENP,ioos.station.NOAA.NDBC:HCEF1:1,2019-04-03T08:00:00Z,25.2540,-80.4440,1.5,36.64,1111122 
ENP,ioos.station.NOAA.NDBC:HCEF1:1,2019-04-03T09:00:00Z,25.2540,-80.4440,1.5,36.65,1111122 
ENP,ioos.station.NOAA.NDBC:HCEF1:1,2019-04-03T10:00:00Z,25.2540,-80.4440,1.5,36.66,1111122 
ENP,ioos.station.NOAA.NDBC:HCEF1:1,2019-04-03T11:00:00Z,25.2540,-80.4440,1.5,36.63,1111122 
ENP,ioos.station.NOAA.NDBC:HCEF1:1,2019-04-03T12:00:00Z,25.2540,-80.4440,1.5,36.61,1111122 
ENP,ioos.station.NOAA.NDBC:HCEF1:1,2019-04-03T13:00:00Z,25.2540,-80.4440,1.5,36.6,1111122 
ENP,ioos.station.NOAA.NDBC:HCEF1:1,2019-04-03T14:00:00Z,25.2540,-80.4440,1.5,36.56,1111122 
ENP,ioos.station.NOAA.NDBC:HCEF1:1,2019-04-03T15:00:00Z,25.2540,-80.4440,1.5,36.55,1111122 
ENP,ioos.station.NOAA.NDBC:HCEF1:1,2019-04-03T16:00:00Z,25.2540,-80.4440,1.5,36.57,1111122 
ENP,ioos.station.NOAA.NDBC:HCEF1:1,2019-04-03T17:00:00Z,25.2540,-80.4440,1.5,36.6,1111122 
ENP,ioos.station.NOAA.NDBC:HCEF1:1,2019-04-03T18:00:00Z,25.2540,-80.4440,1.5,36.58,1111122 
ENP,ioos.station.NOAA.NDBC:HCEF1:1,2019-04-03T19:00:00Z,25.2540,-80.4440,1.5,36.57,1111122 
ENP,ioos.station.NOAA.NDBC:HCEF1:1,2019-04-03T20:00:00Z,25.2540,-80.4440,1.5,36.63,1111122 
ENP,ioos.station.NOAA.NDBC:HCEF1:1,2019-04-03T21:00:00Z,25.2540,-80.4440,1.5,36.66,1111122 
ENP,ioos.station.NOAA.NDBC:HCEF1:1,2019-04-03T22:00:00Z,25.2540,-80.4440,1.5,36.69,1111122 
ENP,ioos.station.NOAA.NDBC:HCEF1:1,2019-04-03T23:00:00Z,25.2540,-80.4440,1.5,36.71,1111122 
ENP,ioos.station.NOAA.NDBC:HCEF1:1,2019-04-04T00:00:00Z,25.2540,-80.4440,1.5,36.75,1111122 
ENP,ioos.station.NOAA.NDBC:HCEF1:1,2019-04-04T01:00:00Z,25.2540,-80.4440,1.5,36.77,1111122 
ENP,ioos.station.NOAA.NDBC:HCEF1:1,2019-04-04T03:00:00Z,25.2540,-80.4440,1.5,36.79,1111122 
ENP,ioos.station.NOAA.NDBC:HCEF1:1,2019-04-04T04:00:00Z,25.2540,-80.4440,1.5,36.8,1111122 
ENP,ioos.station.NOAA.NDBC:HCEF1:1,2019-04-04T05:00:00Z,25.2540,-80.4440,1.5,36.8,1111122 
ENP,ioos.station.NOAA.NDBC:HCEF1:1,2019-04-04T06:00:00Z,25.2540,-80.4440,1.5,36.79,1111122 
ENP,ioos.station.NOAA.NDBC:HCEF1:1,2019-04-04T07:00:00Z,25.2540,-80.4440,1.5,36.76,1111122 
ENP,ioos.station.NOAA.NDBC:HCEF1:1,2019-04-04T08:00:00Z,25.2540,-80.4440,1.5,36.69,1111122 
ENP,ioos.station.NOAA.NDBC:HCEF1:1,2019-04-04T09:00:00Z,25.2540,-80.4440,1.5,36.66,1111122 
ENP,ioos.station.NOAA.NDBC:HCEF1:1,2019-04-04T10:00:00Z,25.2540,-80.4440,1.5,36.63,1111122 
ENP,ioos.station.NOAA.NDBC:HCEF1:1,2019-04-04T11:00:00Z,25.2540,-80.4440,1.5,36.63,1111122 
ENP,ioos.station.NOAA.NDBC:HCEF1:1,2019-04-04T12:00:00Z,25.2540,-80.4440,1.5,36.64,1111122 
ENP,ioos.station.NOAA.NDBC:HCEF1:1,2019-04-04T13:00:00Z,25.2540,-80.4440,1.5,36.66,1111122 
ENP,ioos.station.NOAA.NDBC:HCEF1:1,2019-04-04T14:00:00Z,25.2540,-80.4440,1.5,36.67,1111122 
ENP,ioos.station.NOAA.NDBC:HCEF1:1,2019-04-04T15:00:00Z,25.2540,-80.4440,1.5,36.69,1111122 
ENP,ioos.station.NOAA.NDBC:HCEF1:1,2019-04-04T16:00:00Z,25.2540,-80.4440,1.5,36.7,1111122 
ENP,ioos.station.NOAA.NDBC:HCEF1:1,2019-04-04T17:00:00Z,25.2540,-80.4440,1.5,36.74,1111122 
ENP,ioos.station.NOAA.NDBC:HCEF1:1,2019-04-04T18:00:00Z,25.2540,-80.4440,1.5,36.69,1111122 
ENP,ioos.station.NOAA.NDBC:HCEF1:1,2019-04-04T19:00:00Z,25.2540,-80.4440,1.5,36.65,1111122 
ENP,ioos.station.NOAA.NDBC:HCEF1:1,2019-04-04T20:00:00Z,25.2540,-80.4440,1.5,36.62,1111122 
ENP,ioos.station.NOAA.NDBC:HCEF1:1,2019-04-04T21:00:00Z,25.2540,-80.4440,1.5,36.65,1111122 
ENP,ioos.station.NOAA.NDBC:HCEF1:1,2019-04-04T22:00:00Z,25.2540,-80.4440,1.5,36.69,1111122 
ENP,ioos.station.NOAA.NDBC:HCEF1:1,2019-04-04T23:00:00Z,25.2540,-80.4440,1.5,36.71,1111122 
ENP,ioos.station.NOAA.NDBC:HCEF1:1,2019-04-05T00:00:00Z,25.2540,-80.4440,1.5,36.71,1111122 
ENP,ioos.station.NOAA.NDBC:HCEF1:1,2019-04-05T01:00:00Z,25.2540,-80.4440,1.5,36.71,1111122 
ENP,ioos.station.NOAA.NDBC:HCEF1:1,2019-04-05T03:00:00Z,25.2540,-80.4440,1.5,36.68,1111122 
ENP,ioos.station.NOAA.NDBC:HCEF1:1,2019-04-05T04:00:00Z,25.2540,-80.4440,1.5,36.61,1111122 
ENP,ioos.station.NOAA.NDBC:HCEF1:1,2019-04-05T05:00:00Z,25.2540,-80.4440,1.5,36.61,1111122 
ENP,ioos.station.NOAA.NDBC:HCEF1:1,2019-04-05T06:00:00Z,25.2540,-80.4440,1.5,36.61,1111122 
ENP,ioos.station.NOAA.NDBC:HCEF1:1,2019-04-05T07:00:00Z,25.2540,-80.4440,1.5,36.58,1111122 
ENP,ioos.station.NOAA.NDBC:HCEF1:1,2019-04-05T08:00:00Z,25.2540,-80.4440,1.5,36.55,1111122 
ENP,ioos.station.NOAA.NDBC:HCEF1:1,2019-04-05T09:00:00Z,25.2540,-80.4440,1.5,36.54,1111122 
ENP,ioos.station.NOAA.NDBC:HCEF1:1,2019-04-05T10:00:00Z,25.2540,-80.4440,1.5,36.52,1111122 
ENP,ioos.station.NOAA.NDBC:HCEF1:1,2019-04-05T11:00:00Z,25.2540,-80.4440,1.5,36.51,1111122 
ENP,ioos.station.NOAA.NDBC:HCEF1:1,2019-04-05T12:00:00Z,25.2540,-80.4440,1.5,36.51,1111122 
ENP,ioos.station.NOAA.NDBC:HCEF1:1,2019-04-05T13:00:00Z,25.2540,-80.4440,1.5,36.51,1111122 
ENP,ioos.station.NOAA.NDBC:HCEF1:1,2019-04-05T14:00:00Z,25.2540,-80.4440,1.5,36.54,1111122 
ENP,ioos.station.NOAA.NDBC:HCEF1:1,2019-04-05T15:00:00Z,25.2540,-80.4440,1.5,36.57,1111122 
ENP,ioos.station.NOAA.NDBC:HCEF1:1,2019-04-05T16:00:00Z,25.2540,-80.4440,1.5,36.62,1111122 
ENP,ioos.station.NOAA.NDBC:HCEF1:1,2019-04-05T17:00:00Z,25.2540,-80.4440,1.5,36.65,1111122 
ENP,ioos.station.NOAA.NDBC:HCEF1:1,2019-04-05T18:00:00Z,25.2540,-80.4440,1.5,36.63,1111122 
ENP,ioos.station.NOAA.NDBC:HCEF1:1,2019-04-05T19:00:00Z,25.2540,-80.4440,1.5,36.64,1111122 
ENP,ioos.station.NOAA.NDBC:HCEF1:1,2019-04-05T20:00:00Z,25.2540,-80.4440,1.5,36.67,1111122 
ENP,ioos.station.NOAA.NDBC:HCEF1:1,2019-04-05T21:00:00Z,25.2540,-80.4440,1.5,36.69,1111122 
ENP,ioos.station.NOAA.NDBC:HCEF1:1,2019-04-05T22:00:00Z,25.2540,-80.4440,1.5,36.69,1111122 
ENP,ioos.station.NOAA.NDBC:HCEF1:1,2019-04-05T23:00:00Z,25.2540,-80.4440,1.5,36.7,1111122 
ENP,ioos.station.NOAA.NDBC:HCEF1:1,2019-04-06T00:00:00Z,25.2540,-80.4440,1.5,36.69,1111122 
ENP,ioos.station.NOAA.NDBC:HCEF1:1,2019-04-06T01:00:00Z,25.2540,-80.4440,1.5,36.71,1111122 
ENP,ioos.station.NOAA.NDBC:HCEF1:1,2019-04-06T03:00:00Z,25.2540,-80.4440,1.5,36.74,1111122 
ENP,ioos.station.NOAA.NDBC:HCEF1:1,2019-04-06T04:00:00Z,25.2540,-80.4440,1.5,36.77,1111122 
ENP,ioos.station.NOAA.NDBC:HCEF1:1,2019-04-06T05:00:00Z,25.2540,-80.4440,1.5,36.77,1111122 
ENP,ioos.station.NOAA.NDBC:HCEF1:1,2019-04-06T06:00:00Z,25.2540,-80.4440,1.5,36.78,1111122 
ENP,ioos.station.NOAA.NDBC:HCEF1:1,2019-04-06T07:00:00Z,25.2540,-80.4440,1.5,36.8,1111122 
ENP,ioos.station.NOAA.NDBC:HCEF1:1,2019-04-06T08:00:00Z,25.2540,-80.4440,1.5,36.79,1111122 
ENP,ioos.station.NOAA.NDBC:HCEF1:1,2019-04-06T09:00:00Z,25.2540,-80.4440,1.5,36.79,1111122 
ENP,ioos.station.NOAA.NDBC:HCEF1:1,2019-04-06T10:00:00Z,25.2540,-80.4440,1.5,36.8,1111122 
ENP,ioos.station.NOAA.NDBC:HCEF1:1,2019-04-06T11:00:00Z,25.2540,-80.4440,1.5,36.77,1111122 
ENP,ioos.station.NOAA.NDBC:HCEF1:1,2019-04-06T12:00:00Z,25.2540,-80.4440,1.5,36.76,1111122 
ENP,ioos.station.NOAA.NDBC:HCEF1:1,2019-04-06T13:00:00Z,25.2540,-80.4440,1.5,36.73,1111122 
ENP,ioos.station.NOAA.NDBC:HCEF1:1,2019-04-06T14:00:00Z,25.2540,-80.4440,1.5,36.65,1111122 
ENP,ioos.station.NOAA.NDBC:HCEF1:1,2019-04-06T15:00:00Z,25.2540,-80.4440,1.5,36.64,1111122 
ENP,ioos.station.NOAA.NDBC:HCEF1:1,2019-04-06T16:00:00Z,25.2540,-80.4440,1.5,36.7,1111122 
ENP,ioos.station.NOAA.NDBC:HCEF1:1,2019-04-06T17:00:00Z,25.2540,-80.4440,1.5,36.75,1111122 
ENP,ioos.station.NOAA.NDBC:HCEF1:1,2019-04-06T18:00:00Z,25.2540,-80.4440,1.5,36.8,1111122 
ENP,ioos.station.NOAA.NDBC:HCEF1:1,2019-04-06T19:00:00Z,25.2540,-80.4440,1.5,36.86,1111122 
ENP,ioos.station.NOAA.NDBC:HCEF1:1,2019-04-06T20:00:00Z,25.2540,-80.4440,1.5,36.9,1111122 
ENP,ioos.station.NOAA.NDBC:HCEF1:1,2019-04-06T21:00:00Z,25.2540,-80.4440,1.5,36.92,1111122 
ENP,ioos.station.NOAA.NDBC:HCEF1:1,2019-04-06T22:00:00Z,25.2540,-80.4440,1.5,36.92,1111122 
ENP,ioos.station.NOAA.NDBC:HCEF1:1,2019-04-06T23:00:00Z,25.2540,-80.4440,1.5,36.94,1111122 
ENP,ioos.station.NOAA.NDBC:HCEF1:1,2019-04-07T00:00:00Z,25.2540,-80.4440,1.5,36.92,1111122 
ENP,ioos.station.NOAA.NDBC:HCEF1:1,2019-04-07T01:00:00Z,25.2540,-80.4440,1.5,36.92,1111122 
ENP,ioos.station.NOAA.NDBC:HCEF1:1,2019-04-12T22:00:00Z,25.2540,-80.4440,1.5,35.0,11111222 
ENP,ioos.station.NOAA.NDBC:HCEF1:1,2019-04-12T23:00:00Z,25.2540,-80.4440,1.5,35.06,1111122 
ENP,ioos.station.NOAA.NDBC:HCEF1:1,2019-04-13T00:00:00Z,25.2540,-80.4440,1.5,35.11,1111122 
ENP,ioos.station.NOAA.NDBC:HCEF1:1,2019-04-13T01:00:00Z,25.2540,-80.4440,1.5,35.17,1111122 
ENP,ioos.station.NOAA.NDBC:HCEF1:1,2019-04-13T02:00:00Z,25.2540,-80.4440,1.5,35.14,1111122 
ENP,ioos.station.NOAA.NDBC:HCEF1:1,2019-04-13T03:00:00Z,25.2540,-80.4440,1.5,35.2,11111222 
ENP,ioos.station.NOAA.NDBC:HCEF1:1,2019-04-13T04:00:00Z,25.2540,-80.4440,1.5,35.2,1111122 
ENP,ioos.station.NOAA.NDBC:HCEF1:1,2019-04-13T05:00:00Z,25.2540,-80.4440,1.5,35.14,1111122 
ENP,ioos.station.NOAA.NDBC:HCEF1:1,2019-04-13T06:00:00Z,25.2540,-80.4440,1.5,35.11,1111122 
ENP,ioos.station.NOAA.NDBC:HCEF1:1,2019-04-13T07:00:00Z,25.2540,-80.4440,1.5,35.04,1111122 
ENP,ioos.station.NOAA.NDBC:HCEF1:1,2019-04-13T08:00:00Z,25.2540,-80.4440,1.5,35.0,1111122 
ENP,ioos.station.NOAA.NDBC:HCEF1:1,2019-04-13T09:00:00Z,25.2540,-80.4440,1.5,34.99,1111122 
ENP,ioos.station.NOAA.NDBC:HCEF1:1,2019-04-13T10:00:00Z,25.2540,-80.4440,1.5,35.0,1111122 
ENP,ioos.station.NOAA.NDBC:HCEF1:1,2019-04-13T11:00:00Z,25.2540,-80.4440,1.5,35.0,1111122 
ENP,ioos.station.NOAA.NDBC:HCEF1:1,2019-04-13T12:00:00Z,25.2540,-80.4440,1.5,34.95,1111122 
ENP,ioos.station.NOAA.NDBC:HCEF1:1,2019-04-13T13:00:00Z,25.2540,-80.4440,1.5,34.92,1111122 
ENP,ioos.station.NOAA.NDBC:HCEF1:1,2019-04-13T14:00:00Z,25.2540,-80.4440,1.5,35.02,1111122 
ENP,ioos.station.NOAA.NDBC:HCEF1:1,2019-04-13T15:00:00Z,25.2540,-80.4440,1.5,34.76,1111122 
ENP,ioos.station.NOAA.NDBC:HCEF1:1,2019-04-13T16:00:00Z,25.2540,-80.4440,1.5,34.67,1111122 
ENP,ioos.station.NOAA.NDBC:HCEF1:1,2019-04-13T17:00:00Z,25.2540,-80.4440,1.5,35.0,1111122 
ENP,ioos.station.NOAA.NDBC:HCEF1:1,2019-04-13T18:00:00Z,25.2540,-80.4440,1.5,35.15,1111122 
ENP,ioos.station.NOAA.NDBC:HCEF1:1,2019-04-13T19:00:00Z,25.2540,-80.4440,1.5,35.31,1111122 
ENP,ioos.station.NOAA.NDBC:HCEF1:1,2019-04-13T20:00:00Z,25.2540,-80.4440,1.5,35.47,1111122 
ENP,ioos.station.NOAA.NDBC:HCEF1:1,2019-04-13T21:00:00Z,25.2540,-80.4440,1.5,35.5,11111222 
ENP,ioos.station.NOAA.NDBC:HCEF1:1,2019-04-13T22:00:00Z,25.2540,-80.4440,1.5,35.55,1111122 
ENP,ioos.station.NOAA.NDBC:HCEF1:1,2019-04-13T23:00:00Z,25.2540,-80.4440,1.5,35.54,1111122 
ENP,ioos.station.NOAA.NDBC:HCEF1:1,2019-04-14T00:00:00Z,25.2540,-80.4440,1.5,35.59,1111122 
ENP,ioos.station.NOAA.NDBC:HCEF1:1,2019-04-14T01:00:00Z,25.2540,-80.4440,1.5,35.59,1111122 
ENP,ioos.station.NOAA.NDBC:HCEF1:1,2019-04-14T02:00:00Z,25.2540,-80.4440,1.5,35.59,1111122 
ENP,ioos.station.NOAA.NDBC:HCEF1:1,2019-04-14T03:00:00Z,25.2540,-80.4440,1.5,35.6,11111222 
ENP,ioos.station.NOAA.NDBC:HCEF1:1,2019-04-14T04:00:00Z,25.2540,-80.4440,1.5,35.47,1111122 
ENP,ioos.station.NOAA.NDBC:HCEF1:1,2019-04-14T05:00:00Z,25.2540,-80.4440,1.5,35.38,1111122 
ENP,ioos.station.NOAA.NDBC:HCEF1:1,2019-04-14T06:00:00Z,25.2540,-80.4440,1.5,35.29,1111122 
ENP,ioos.station.NOAA.NDBC:HCEF1:1,2019-04-14T07:00:00Z,25.2540,-80.4440,1.5,35.16,1111122 
ENP,ioos.station.NOAA.NDBC:HCEF1:1,2019-04-14T08:00:00Z,25.2540,-80.4440,1.5,35.06,1111122 
ENP,ioos.station.NOAA.NDBC:HCEF1:1,2019-04-14T09:00:00Z,25.2540,-80.4440,1.5,35.04,1111122 
ENP,ioos.station.NOAA.NDBC:HCEF1:1,2019-04-14T10:00:00Z,25.2540,-80.4440,1.5,35.04,1111122 
ENP,ioos.station.NOAA.NDBC:HCEF1:1,2019-04-14T11:00:00Z,25.2540,-80.4440,1.5,35.06,1111122 
ENP,ioos.station.NOAA.NDBC:HCEF1:1,2019-04-14T12:00:00Z,25.2540,-80.4440,1.5,35.08,1111122 
ENP,ioos.station.NOAA.NDBC:HCEF1:1,2019-04-14T13:00:00Z,25.2540,-80.4440,1.5,35.02,1111122 
ENP,ioos.station.NOAA.NDBC:HCEF1:1,2019-04-14T14:00:00Z,25.2540,-80.4440,1.5,34.16,1111122 
ENP,ioos.station.NOAA.NDBC:HCEF1:1,2019-04-14T15:00:00Z,25.2540,-80.4440,1.5,34.2,11111222 
ENP,ioos.station.NOAA.NDBC:HCEF1:1,2019-04-14T16:00:00Z,25.2540,-80.4440,1.5,34.3,1111122 
ENP,ioos.station.NOAA.NDBC:HCEF1:1,2019-04-14T17:00:00Z,25.2540,-80.4440,1.5,34.38,1111122 
ENP,ioos.station.NOAA.NDBC:HCEF1:1,2019-04-14T18:00:00Z,25.2540,-80.4440,1.5,34.5,1111122 
ENP,ioos.station.NOAA.NDBC:HCEF1:1,2019-04-14T19:00:00Z,25.2540,-80.4440,1.5,34.6,1111122 
ENP,ioos.station.NOAA.NDBC:HCEF1:1,2019-04-14T20:00:00Z,25.2540,-80.4440,1.5,34.69,1111122 
ENP,ioos.station.NOAA.NDBC:HCEF1:1,2019-04-14T21:00:00Z,25.2540,-80.4440,1.5,34.82,1111122 
ENP,ioos.station.NOAA.NDBC:HCEF1:1,2019-04-14T22:00:00Z,25.2540,-80.4440,1.5,34.92,1111122 
ENP,ioos.station.NOAA.NDBC:HCEF1:1,2019-04-14T23:00:00Z,25.2540,-80.4440,1.5,34.97,1111122 
ENP,ioos.station.NOAA.NDBC:HCEF1:1,2019-04-15T00:00:00Z,25.2540,-80.4440,1.5,35.03,1111122 
ENP,ioos.station.NOAA.NDBC:HCEF1:1,2019-04-15T01:00:00Z,25.2540,-80.4440,1.5,35.1,11111222 
ENP,ioos.station.NOAA.NDBC:HCEF1:1,2019-04-15T02:00:00Z,25.2540,-80.4440,1.5,35.09,1111122 
ENP,ioos.station.NOAA.NDBC:HCEF1:1,2019-04-15T03:00:00Z,25.2540,-80.4440,1.5,35.1,11111222 
ENP,ioos.station.NOAA.NDBC:HCEF1:1,2019-04-15T04:00:00Z,25.2540,-80.4440,1.5,34.92,1111122 
ENP,ioos.station.NOAA.NDBC:HCEF1:1,2019-04-15T05:00:00Z,25.2540,-80.4440,1.5,34.69,1111122 
ENP,ioos.station.NOAA.NDBC:HCEF1:1,2019-04-15T06:00:00Z,25.2540,-80.4440,1.5,34.68,1111122 
ENP,ioos.station.NOAA.NDBC:HCEF1:1,2019-04-15T07:00:00Z,25.2540,-80.4440,1.5,34.67,1111122 
ENP,ioos.station.NOAA.NDBC:HCEF1:1,2019-04-15T08:00:00Z,25.2540,-80.4440,1.5,34.67,1111122 
ENP,ioos.station.NOAA.NDBC:HCEF1:1,2019-04-15T09:00:00Z,25.2540,-80.4440,1.5,34.69,1111122 
ENP,ioos.station.NOAA.NDBC:HCEF1:1,2019-04-15T10:00:00Z,25.2540,-80.4440,1.5,34.72,1111122 
ENP,ioos.station.NOAA.NDBC:HCEF1:1,2019-04-15T11:00:00Z,25.2540,-80.4440,1.5,34.74,1111122 
ENP,ioos.station.NOAA.NDBC:HCEF1:1,2019-04-15T12:00:00Z,25.2540,-80.4440,1.5,34.75,1111122 
ENP,ioos.station.NOAA.NDBC:HCEF1:1,2019-04-15T13:00:00Z,25.2540,-80.4440,1.5,34.74,1111122 
ENP,ioos.station.NOAA.NDBC:HCEF1:1,2019-04-15T14:00:00Z,25.2540,-80.4440,1.5,34.73,1111122 
ENP,ioos.station.NOAA.NDBC:HCEF1:1,2019-04-15T15:00:00Z,25.2540,-80.4440,1.5,34.73,1111122 
ENP,ioos.station.NOAA.NDBC:HCEF1:1,2019-04-15T16:00:00Z,25.2540,-80.4440,1.5,34.64,1111122 
ENP,ioos.station.NOAA.NDBC:HCEF1:1,2019-04-15T17:00:00Z,25.2540,-80.4440,1.5,34.66,1111122 
ENP,ioos.station.NOAA.NDBC:HCEF1:1,2019-04-15T18:00:00Z,25.2540,-80.4440,1.5,34.68,1111122 
ENP,ioos.station.NOAA.NDBC:HCEF1:1,2019-04-15T19:00:00Z,25.2540,-80.4440,1.5,34.67,1111122 
ENP,ioos.station.NOAA.NDBC:HCEF1:1,2019-04-15T20:00:00Z,25.2540,-80.4440,1.5,34.69,1111122 
ENP,ioos.station.NOAA.NDBC:HCEF1:1,2019-04-15T21:00:00Z,25.2540,-80.4440,1.5,34.66,1111122 
ENP,ioos.station.NOAA.NDBC:HCEF1:1,2019-04-15T22:00:00Z,25.2540,-80.4440,1.5,34.69,1111122 
ENP,ioos.station.NOAA.NDBC:HCEF1:1,2019-04-15T23:00:00Z,25.2540,-80.4440,1.5,34.72,1111122 
ENP,ioos.station.NOAA.NDBC:HCEF1:1,2019-04-16T00:00:00Z,25.2540,-80.4440,1.5,34.77,1111122 
ENP,ioos.station.NOAA.NDBC:HCEF1:1,2019-04-16T01:00:00Z,25.2540,-80.4440,1.5,34.95,1111122 
ENP,ioos.station.NOAA.NDBC:HCEF1:1,2019-04-16T02:00:00Z,25.2540,-80.4440,1.5,34.53,1111122 
ENP,ioos.station.NOAA.NDBC:HCEF1:1,2019-04-16T03:00:00Z,25.2540,-80.4440,1.5,34.3,11111222 
ENP,ioos.station.NOAA.NDBC:HCEF1:1,2019-04-16T04:00:00Z,25.2540,-80.4440,1.5,34.24,1111122 
ENP,ioos.station.NOAA.NDBC:HCEF1:1,2019-04-16T05:00:00Z,25.2540,-80.4440,1.5,34.33,1111122 
ENP,ioos.station.NOAA.NDBC:HCEF1:1,2019-04-16T06:00:00Z,25.2540,-80.4440,1.5,34.38,1111122 
ENP,ioos.station.NOAA.NDBC:HCEF1:1,2019-04-16T07:00:00Z,25.2540,-80.4440,1.5,34.44,1111122 
ENP,ioos.station.NOAA.NDBC:HCEF1:1,2019-04-16T08:00:00Z,25.2540,-80.4440,1.5,34.52,1111122 
ENP,ioos.station.NOAA.NDBC:HCEF1:1,2019-04-16T09:00:00Z,25.2540,-80.4440,1.5,34.6,1111122 
ENP,ioos.station.NOAA.NDBC:HCEF1:1,2019-04-16T10:00:00Z,25.2540,-80.4440,1.5,34.56,1111122 
ENP,ioos.station.NOAA.NDBC:HCEF1:1,2019-04-16T11:00:00Z,25.2540,-80.4440,1.5,34.18,1111122 
ENP,ioos.station.NOAA.NDBC:HCEF1:1,2019-04-16T12:00:00Z,25.2540,-80.4440,1.5,34.01,1111122 
ENP,ioos.station.NOAA.NDBC:HCEF1:1,2019-04-16T13:00:00Z,25.2540,-80.4440,1.5,33.74,1111122 
ENP,ioos.station.NOAA.NDBC:HCEF1:1,2019-04-16T14:00:00Z,25.2540,-80.4440,1.5,33.64,1111122 
ENP,ioos.station.NOAA.NDBC:HCEF1:1,2019-04-16T15:00:00Z,25.2540,-80.4440,1.5,33.55,1111122 
ENP,ioos.station.NOAA.NDBC:HCEF1:1,2019-04-16T16:00:00Z,25.2540,-80.4440,1.5,33.47,1111122 
ENP,ioos.station.NOAA.NDBC:HCEF1:1,2019-04-16T17:00:00Z,25.2540,-80.4440,1.5,33.46,1111122 
ENP,ioos.station.NOAA.NDBC:HCEF1:1,2019-04-16T18:00:00Z,25.2540,-80.4440,1.5,33.52,1111122 
ENP,ioos.station.NOAA.NDBC:HCEF1:1,2019-04-16T19:00:00Z,25.2540,-80.4440,1.5,33.55,11111222 
ENP,ioos.station.NOAA.NDBC:HCEF1:1,2019-04-16T20:00:00Z,25.2540,-80.4440,1.5,33.61,11111222 
ENP,ioos.station.NOAA.NDBC:HCEF1:1,2019-04-16T23:00:00Z,25.2540,-80.4440,1.5,33.8,11111222 
ENP,ioos.station.NOAA.NDBC:HCEF1:1,2019-04-17T00:00:00Z,25.2540,-80.4440,1.5,33.81,11111222 
ENP,ioos.station.NOAA.NDBC:HCEF1:1,2019-04-17T01:00:00Z,25.2540,-80.4440,1.5,33.65,11111222 
ENP,ioos.station.NOAA.NDBC:HCEF1:1,2019-04-17T02:00:00Z,25.2540,-80.4440,1.5,33.48,11111222 
ENP,ioos.station.NOAA.NDBC:HCEF1:1,2019-04-17T03:00:00Z,25.2540,-80.4440,1.5,33.4,11111222 
ENP,ioos.station.NOAA.NDBC:HCEF1:1,2019-04-17T04:00:00Z,25.2540,-80.4440,1.5,33.38,11111222 
ENP,ioos.station.NOAA.NDBC:HCEF1:1,2019-04-17T05:00:00Z,25.2540,-80.4440,1.5,33.36,11111222 
ENP,ioos.station.NOAA.NDBC:HCEF1:1,2019-04-17T07:00:00Z,25.2540,-80.4440,1.5,33.3,11111222 
ENP,ioos.station.NOAA.NDBC:HCEF1:1,2019-04-17T08:00:00Z,25.2540,-80.4440,1.5,33.32,11111222 
ENP,ioos.station.NOAA.NDBC:HCEF1:1,2019-04-17T09:00:00Z,25.2540,-80.4440,1.5,33.33,11111222 
ENP,ioos.station.NOAA.NDBC:HCEF1:1,2019-04-17T10:00:00Z,25.2540,-80.4440,1.5,33.33,11111222 
ENP,ioos.station.NOAA.NDBC:HCEF1:1,2019-04-17T11:00:00Z,25.2540,-80.4440,1.5,33.33,11111222 
ENP,ioos.station.NOAA.NDBC:HCEF1:1,2019-04-17T12:00:00Z,25.2540,-80.4440,1.5,33.33,11111222 
ENP,ioos.station.NOAA.NDBC:HCEF1:1,2019-04-17T13:00:00Z,25.2540,-80.4440,1.5,33.36,11111222 
ENP,ioos.station.NOAA.NDBC:HCEF1:1,2019-04-17T14:00:00Z,25.2540,-80.4440,1.5,33.38,11111222 
ENP,ioos.station.NOAA.NDBC:HCEF1:1,2019-04-17T15:00:00Z,25.2540,-80.4440,1.5,33.4,11111222 
ENP,ioos.station.NOAA.NDBC:HCEF1:1,2019-04-17T16:00:00Z,25.2540,-80.4440,1.5,33.42,11111222 
ENP,ioos.station.NOAA.NDBC:HCEF1:1,2019-04-17T17:00:00Z,25.2540,-80.4440,1.5,33.46,11111222 
ENP,ioos.station.NOAA.NDBC:HCEF1:1,2019-04-17T18:00:00Z,25.2540,-80.4440,1.5,33.5,11111222 
ENP,ioos.station.NOAA.NDBC:HCEF1:1,2019-04-17T19:00:00Z,25.2540,-80.4440,1.5,33.57,11111222 
ENP,ioos.station.NOAA.NDBC:HCEF1:1,2019-04-17T20:00:00Z,25.2540,-80.4440,1.5,33.67,11111222 
ENP,ioos.station.NOAA.NDBC:HCEF1:1,2019-04-17T21:00:00Z,25.2540,-80.4440,1.5,33.86,11111222 
ENP,ioos.station.NOAA.NDBC:HCEF1:1,2019-04-17T22:00:00Z,25.2540,-80.4440,1.5,34.0,11111222 
ENP,ioos.station.NOAA.NDBC:HCEF1:1,2019-04-17T23:00:00Z,25.2540,-80.4440,1.5,34.15,11111222 
ENP,ioos.station.NOAA.NDBC:HCEF1:1,2019-04-18T00:00:00Z,25.2540,-80.4440,1.5,34.21,11111222 
ENP,ioos.station.NOAA.NDBC:HCEF1:1,2019-04-18T01:00:00Z,25.2540,-80.4440,1.5,34.22,11111222 
ENP,ioos.station.NOAA.NDBC:HCEF1:1,2019-04-18T02:00:00Z,25.2540,-80.4440,1.5,34.24,11111222 
ENP,ioos.station.NOAA.NDBC:HCEF1:1,2019-04-18T03:00:00Z,25.2540,-80.4440,1.5,34.3,11111222 
ENP,ioos.station.NOAA.NDBC:HCEF1:1,2019-04-18T04:00:00Z,25.2540,-80.4440,1.5,34.26,11111222 
ENP,ioos.station.NOAA.NDBC:HCEF1:1,2019-04-18T05:00:00Z,25.2540,-80.4440,1.5,34.28,11111222 
ENP,ioos.station.NOAA.NDBC:HCEF1:1,2019-04-18T07:00:00Z,25.2540,-80.4440,1.5,34.4,11111222 
ENP,ioos.station.NOAA.NDBC:HCEF1:1,2019-04-18T08:00:00Z,25.2540,-80.4440,1.5,34.52,11111222 